Tracking 29747 objects as of 9-Oct-2024
HD Live streaming from Space Station
objects crossing your sky now

SL-14 DEB

Track SL-14 DEB now!
10-day predictions


NORAD ID: 45294
Int'l Code: 1991-056AG
Perigee: 1,188.5 km
Apogee: 1,194.4 km
Inclination: 82.6 °
Period: 109.1 minutes
Semi major axis: 7562 km
RCS: Unknown
Launch date: August 15, 1991
Source: Commonwealth of Independent States (former USSR) (CIS)
Launch site: PLESETSK MISSILE AND SPACE COMPLEX (PKMTR)

Note: This is SATELLITE DEBRIS
Your satellite tracking list
Your tracking list is empty




NASA's NSSDC Master Catalog

Two Line Element Set (TLE):
1 45294U 91056AG  24283.21654364  .00002652  00000-0  65542-2 0  9994
2 45294  82.5685 213.6451 0003904 298.3080  61.7650 13.20096865222447
Source of the keplerian elements: AFSPC